Location: ???????
(55.8930°N, 38.0586°E)
Time: 13:35:58
(UTC+00:00)

RESURS DK-1 - Pass Details

Date: 14 April 2024
Orbit: 543 x 547 km, 69.9° (Epoch: 26 May)

Event Time Altitude Azimuth Distance (km) Brightness Sun altitude
Exits shadow 01:05:38 14° 214° (SSW) 1,592 4.1 -10.7°
Maximum altitude 01:09:08 87° 126° (SE) 552 2.3 -10.3°
Drops below altitude 10° 01:13:13 10° 37° (NE) 1,822 6.3 -9.8°
Sets 01:15:25 0° 37° (NE) 2,719 7.4 -9.5°
